{"data":{"norad_id":60593,"epoch":"2026-09-21T21:30:05.808384Z","epoch_age_seconds":67821,"freshness":"FRESH","line1":"1 60593U 24150L   26264.89590056  .00006042  00000+0  19000-3 0  9991","line2":"2 60593  53.1595 111.2545 0001153 114.5001 245.6122 15.34367916118067","mean_motion":15.34367916,"eccentricity":0.0001153,"inclination_deg":53.1595,"raan_deg":111.2545,"arg_perigee_deg":114.5001,"mean_anomaly_deg":245.6122,"bstar":0.00019,"rev_number":11806,"period_min":93.849720460396,"perigee_km":462.00984240323,"apogee_km":463.58736215311,"semimajor_km":6840.9356022782,"source":"CELESTRAK","updated_at":"2026-09-22T09:00:49.273261Z"}}